SL-16 DEB

Satellite information

Favourite Embed

Satellite Type and Status

DEBRISIN ORBIT

Key statistics

Satellite SL-16 DEB at a glance.

Uptime

11342

Days in orbit

Revolutions

≈ 14.1

Per day

Orbit

LEO

Low Earth Orbit

Inclination

71.0

Latest

Satellite identification and parameters

Extended collection of information and parameters for SL-16 DEB.

Object identification

Identified? True

Debris? True

Object name: SL-16 DEB

International designator: 1994-077J

Object number (NORAD): 23418

Object ID (CCSDS): 23418

Country: COMMONWEALTH OF INDEPENDENT STATES (CIS)

Current information (Y/N): Y

RCS size: SMALL

Orbital parameters

Period: 102.099 minutes

Inclination: 71.0059 deg

SMA: 7236.147 km

Apoapsis: 911.508 km

Periapsis: 804.517 km

RAAN: 246.621 deg

Eccentricy: 0.00739286

Argument of periapsis: 135.9892 deg

Mean anomaly: 224.7148 deg

Mean motion: 14.10397887 rev/day

Mean motion (dot): 0.00000337 rev/day2

B* drag term: 0.00021058816 1/REarth

Two-line elements (TLE)

Creation date: Nov. 21, 2025, 3:06 a.m.

Reference frame: TEME

Reference center: EARTH

Epoch: Nov. 20, 2025, 1:58 a.m. UTC

TLE line 0: 0 SL-16 DEB

TLE line 1: 1 23418U 94077J 25324.08221386 .00000337 00000-0 21059-3 0 9994

TLE line 2: 2 23418 71.0059 246.6210 0073929 135.9892 224.7148 14.10397887633963

Live tracking on map

Real-time ground track for satellite SL-16 DEB.

In-orbit conjunctions

A list of the most updated potential collisions computed for object SL-16 DEB.

Target Orbit TCA Probability of collision Miss distance Type
NOAA 7 SSO 2024-12-19 14:29:47 0.0002933695 262.0 (m) PAYLOAD
SL-14 DEB LEO 2024-11-15 11:45:08 0.0001099284 110.0 (m) DEBRIS
FENGYUN 1C DEB SSO 2024-11-12 12:02:34 0.0001893182 840.0 (m) DEBRIS

Associated space launch

Second generation ELING satellite

SL-16 DEB was lifted into orbit during the mission ‘Zenit-2 | Tselina-2 16’, on board a Zenit-2 space rocket.

The launch took place on Nov. 24, 1994, 9:15 a.m. from 45/1.

For more information about the launch, click the button.

Launch to space Zenit-2 | Tselina-2 16
Zenit-2 | Tselina-2 16

Agency: N/A

Status: Launch Successful

Launch date: Nov. 24, 1994, 9:15 a.m. UTC

Rocket: Zenit-2

Launch pad: 45/1

Location: Baikonur Cosmodrome, Republic of Kazakhstan

...

Latest news about this satellite

There are no fresh news available about this satellite. Check back as we update our databases every day.


Newsletter sign-up

Weekly statistics, charts and insights to help you stay on top of the space industry.